Tracking 20066 objects as of 7-Dec-2019
HD Live streaming from Space Station
objects crossing your sky now

FENGYUN 1C DEB

Track FENGYUN 1C DEB now!
10-day predictions


NORAD ID: 37477
Int'l Code: 1999-025EJX
Perigee: 832.0 km
Apogee: 879.8 km
Inclination: 98.8 °
Period: 101.9 minutes
Semi major axis: 7226 km
RCS: 0.0017 m2 (small)
Launch date: May 10, 1999
Source: People's Republic of China (PRC)
Launch site: Taiyaun Space Center, China (TSC)

Note: This is SATELLITE DEBRIS
aabbcc
Your satellite tracking list
Your tracking list is empty




NASA's NSSDC Master Catalog

Two Line Element Set (TLE):
1 37477U 99025EJX 19339.81810811 +.00000428 +00000-0 +25115-3 0  9997
2 37477 098.7580 016.1150 0033069 286.5149 073.2391 14.13110860508134
Source of the keplerian elements: AFSPC